Qianfan 05-09

operational
NORAD ID: 63167 Int'l Des: 2025-046 Owner: YUANX Country: CN Constellation: qianfan
LEOCIRCULARPOLAR

Über Qianfan 05-09

Beschreibung wird geladen...

Live-Position

3D-Globus wird geladen...

Nächste Überflüge

Höhenverlauf

Altitude vs Time

uPlot chart will show altitude changes over time

Zweizeiliger Elementsatz

1 63167U 25046J 25350.93281644 .00000151 00000-0 21506-3 0 9996
2 63167 88.9765 319.4377 0016479 105.4563 254.8410 13.51003787 48059
Epoch: 16. Dez. 2025 • Age: 14 hours

Aktueller Status

Höhe 1109.1 km
Geschwindigkeit 7.29 km/s
Subsatellitenpunkt -80.42°S, 43.82°E
Startdatum 11. März 2025
Alter 0.7 years
Typ internet

Technische Details

Klassifizierung Payload
Masse 267.00 kg
Trockenmasse 267.00 kg
Gesamtmasse 267.00 kg
Länge 0.30 m
Durchmesser 3.00 m
Spannweite 10.00 m
Form Box+pan
Hersteller GESIH
Bus-Typ Qianfan
Phasenstatus In Orbit
Besitzer/Staat YUANX/CN

Große Konstellationen

Loading constellations...